New Ulm, MN

9:28 PM CST on December 14, 2019 (GMT -0600)
New Ulm Municipal

Weather History for KULM - October, 2019

Change the Weather History Date:

Wednesday, October 16, 2019

  Actual Average Record
Temperature  
Mean Temperature 42 °F -  
Max Temperature 46 °F 59 °F 86 °F (1958)
Min Temperature 37 °F 35 °F 25 °F (1977)
Degree Days  
Heating Degree Days 24    
Moisture  
Dew Point 34 °F    
Average Humidity 76    
Maximum Humidity 87    
Minimum Humidity 62    
Precipitation  
Precipitation 0.00 in - - ()
Sea Level Pressure  
Sea Level Pressure 30.11 in    
Wind  
Wind Speed 9 mph ()    
Max Wind Speed 18 mph    
Max Gust Speed 23 mph    
Visibility 10.0 miles    
Events      
Averages and records for this station are not official NWS values.
T = Trace of Precipitation, MM = Missing Value Source: Averaged Metar Reports

Daily Weather History Graph

Daily Weather History Graph

Search for Another Location

Airport or City:

Astronomy

Oct. 16, 2019 Rise Set
Actual Time 7:33 AM CDT 6:32 PM CDT
Civil Twilight 7:04 AM CDT 7:01 PM CDT
Nautical Twilight 6:31 AM CDT 7:35 PM CDT
Astronomical Twilight 5:57 AM CDT 8:08 PM CDT
Moon 8:21 PM CDT (10/16) 10:09 AM CDT (10/16)
Length of Visible Light 11h 57m
Length of Day
10h 58m
Waning Gibbous, 92% of the Moon is Illuminated
Oct 16
Waning Gibbous
Oct 21
Last Quarter
Oct 27
New
Nov 4
First Quarter
Nov 12
Full

Hourly Weather History & Observations

Time (CDT) Temp. Windchill Dew Point Humidity Pressure Visibility Wind Dir Wind Speed Gust Speed Precip Events Conditions
12:15 AM 41.0 °F 33.1 °F 37.4 °F 87% 30.10 in 10.0 mi NW 15.0 mph 23.0 mph N/A   Overcast
12:16 AM 41.0 °F 32.8 °F 37.4 °F 87% 30.10 in 10.0 mi NW 16.1 mph 23.0 mph N/A   Overcast
12:35 AM 41.0 °F 33.1 °F 35.6 °F 81% 30.11 in 10.0 mi NW 15.0 mph 20.7 mph N/A   Overcast
12:55 AM 41.0 °F 32.2 °F 35.6 °F 81% 30.12 in 10.0 mi NW 18.4 mph 21.9 mph N/A   Overcast
1:15 AM 41.0 °F 32.5 °F 35.6 °F 81% 30.12 in 10.0 mi NW 17.3 mph - N/A   Overcast
1:16 AM 41.0 °F 32.8 °F 35.6 °F 81% 30.12 in 10.0 mi NW 16.1 mph - N/A   Overcast
1:35 AM 41.0 °F 32.8 °F 35.6 °F 81% 30.12 in 10.0 mi NW 16.1 mph 19.6 mph N/A   Overcast
1:55 AM 41.0 °F 34.3 °F 35.6 °F 81% 30.12 in 10.0 mi NW 11.5 mph 18.4 mph N/A   Overcast
2:15 AM 39.2 °F 31.6 °F 35.6 °F 87% 30.11 in 10.0 mi NW 12.7 mph 18.4 mph N/A   Overcast
2:35 AM 39.2 °F 31.2 °F 33.8 °F 81% 30.11 in 10.0 mi NW 13.8 mph - N/A   Overcast
2:36 AM 39.2 °F 31.2 °F 33.8 °F 81% 30.11 in 10.0 mi NW 13.8 mph 19.6 mph N/A   Overcast
2:55 AM 39.2 °F 32.0 °F 33.8 °F 81% 30.12 in 10.0 mi NW 11.5 mph - N/A   Overcast
3:15 AM 39.2 °F 31.6 °F 33.8 °F 81% 30.13 in 10.0 mi NW 12.7 mph 18.4 mph N/A   Overcast
3:35 AM 39.2 °F 29.8 °F 33.8 °F 81% 30.13 in 10.0 mi NW 18.4 mph 21.9 mph N/A   Overcast
3:55 AM 39.2 °F 30.2 °F 33.8 °F 81% 30.13 in 10.0 mi NW 17.3 mph 21.9 mph N/A   Overcast
4:15 AM 39.2 °F 31.2 °F 33.8 °F 81% 30.14 in 10.0 mi NW 13.8 mph 21.9 mph N/A   Overcast
4:35 AM 39.2 °F 30.5 °F 33.8 °F 81% 30.14 in 10.0 mi NW 16.1 mph - N/A   Overcast
4:55 AM 39.2 °F 32.0 °F 33.8 °F 81% 30.14 in 10.0 mi WNW 11.5 mph - N/A   Overcast
4:56 AM 39.2 °F 31.6 °F 33.8 °F 81% 30.14 in 10.0 mi WNW 12.7 mph - N/A   Overcast
5:15 AM 39.2 °F 32.0 °F 33.8 °F 81% 30.14 in 10.0 mi WNW 11.5 mph 18.4 mph N/A   Overcast
5:35 AM 39.2 °F 30.5 °F 33.8 °F 81% 30.14 in 10.0 mi WNW 16.1 mph - N/A   Overcast
5:55 AM 37.4 °F 29.3 °F 33.8 °F 87% 30.14 in 10.0 mi WNW 12.7 mph 18.4 mph N/A   Overcast
5:56 AM 37.4 °F 28.9 °F 33.8 °F 87% 30.14 in 10.0 mi NW 13.8 mph 18.4 mph N/A   Overcast
6:15 AM 37.4 °F 30.3 °F 33.8 °F 87% 30.15 in 10.0 mi WNW 10.4 mph - N/A   Overcast
6:16 AM 37.4 °F 30.8 °F 33.8 °F 87% 30.15 in 10.0 mi WNW 9.2 mph - N/A   Overcast
6:55 AM 37.4 °F 30.8 °F 33.8 °F 87% 30.14 in 10.0 mi WNW 9.2 mph - N/A   Overcast
7:15 AM 37.4 °F 30.8 °F 33.8 °F 87% 30.14 in 10.0 mi NW 9.2 mph 16.1 mph N/A   Overcast
7:16 AM 37.4 °F 29.8 °F 33.8 °F 87% 30.14 in 10.0 mi NW 11.5 mph 16.1 mph N/A   Overcast
7:35 AM 37.4 °F 29.8 °F 33.8 °F 87% 30.14 in 10.0 mi NW 11.5 mph - N/A   Overcast
7:36 AM 37.4 °F 29.3 °F 33.8 °F 87% 30.14 in 10.0 mi NW 12.7 mph - N/A   Overcast
7:55 AM 37.4 °F 31.4 °F 33.8 °F 87% 30.15 in 10.0 mi NW 8.1 mph - N/A   Overcast
8:15 AM 37.4 °F 31.4 °F 32.0 °F 81% 30.15 in 10.0 mi NW 8.1 mph - N/A   Overcast
8:16 AM 37.4 °F 30.8 °F 32.0 °F 81% 30.15 in 10.0 mi NW 9.2 mph - N/A   Overcast
8:35 AM 37.4 °F 31.4 °F 33.8 °F 87% 30.15 in 10.0 mi NW 8.1 mph - N/A   Overcast
8:55 AM 39.2 °F 32.5 °F 33.8 °F 81% 30.15 in 10.0 mi WNW 10.4 mph - N/A   Overcast
8:56 AM 39.2 °F 33.0 °F 33.8 °F 81% 30.15 in 10.0 mi WNW 9.2 mph - N/A   Overcast
9:15 AM 39.2 °F 33.0 °F 33.8 °F 81% 30.16 in 10.0 mi NW 9.2 mph - N/A   Overcast
9:35 AM 39.2 °F 33.0 °F 33.8 °F 81% 30.16 in 10.0 mi NNW 9.2 mph - N/A   Overcast
9:36 AM 39.2 °F 33.0 °F 33.8 °F 81% 30.16 in 10.0 mi NW 9.2 mph - N/A   Overcast
9:55 AM 39.2 °F 33.0 °F 33.8 °F 81% 30.16 in 10.0 mi WNW 9.2 mph - N/A   Overcast
10:15 AM 39.2 °F 33.0 °F 33.8 °F 81% 30.16 in 10.0 mi NW 9.2 mph - N/A   Overcast
10:16 AM 39.2 °F 33.0 °F 33.8 °F 81% 30.16 in 10.0 mi NW 9.2 mph - N/A   Overcast
10:35 AM 39.2 °F 31.6 °F 33.8 °F 81% 30.17 in 10.0 mi NW 12.7 mph - N/A   Overcast
10:36 AM 39.2 °F 32.5 °F 33.8 °F 81% 30.17 in 10.0 mi NW 10.4 mph - N/A   Overcast
10:55 AM 41.0 °F 34.7 °F 33.8 °F 76% 30.17 in 10.0 mi WNW 10.4 mph - N/A   Overcast
10:56 AM 41.0 °F 34.7 °F 33.8 °F 76% 30.17 in 10.0 mi WNW 10.4 mph - N/A   Overcast
11:15 AM 41.0 °F 34.3 °F 33.8 °F 76% 30.17 in 10.0 mi WNW 11.5 mph - N/A   Overcast
11:16 AM 41.0 °F 34.7 °F 33.8 °F 76% 30.17 in 10.0 mi WNW 10.4 mph - N/A   Overcast
11:35 AM 41.0 °F 34.7 °F 33.8 °F 76% 30.17 in 10.0 mi WNW 10.4 mph - N/A   Overcast
11:55 AM 42.8 °F 37.5 °F 33.8 °F 70% 30.17 in 10.0 mi West 9.2 mph - N/A   Overcast
11:56 AM 42.8 °F 37.5 °F 33.8 °F 70% 30.17 in 10.0 mi WNW 9.2 mph - N/A   Overcast
12:15 PM 42.8 °F 37.0 °F 33.8 °F 70% 30.16 in 10.0 mi NW 10.4 mph - N/A   Overcast
12:16 PM 42.8 °F 37.5 °F 33.8 °F 70% 30.16 in 10.0 mi NW 9.2 mph - N/A   Overcast
12:35 PM 42.8 °F 39.3 °F 33.8 °F 70% 30.15 in 10.0 mi WNW 5.8 mph - N/A   Overcast
12:36 PM 42.8 °F 38.0 °F 33.8 °F 70% 30.15 in 10.0 mi NW 8.1 mph - N/A   Overcast
12:55 PM 42.8 °F 38.6 °F 33.8 °F 70% 30.15 in 10.0 mi WNW 6.9 mph - N/A   Overcast
12:56 PM 42.8 °F 38.6 °F 33.8 °F 70% 30.15 in 10.0 mi WNW 6.9 mph - N/A   Overcast
1:15 PM 42.8 °F 38.6 °F 33.8 °F 70% 30.14 in 10.0 mi NNW 6.9 mph - N/A   Overcast
1:35 PM 42.8 °F 38.0 °F 33.8 °F 70% 30.13 in 10.0 mi NNW 8.1 mph - N/A   Overcast
1:55 PM 44.6 °F 40.7 °F 33.8 °F 66% 30.13 in 10.0 mi WNW 6.9 mph - N/A   Overcast
2:15 PM 44.6 °F 40.7 °F 33.8 °F 66% 30.12 in 10.0 mi NNW 6.9 mph - N/A   Overcast
2:35 PM 44.6 °F 43.1 °F 33.8 °F 66% 30.12 in 10.0 mi WNW 3.5 mph - N/A   Overcast
2:55 PM 46.4 °F - 33.8 °F 62% 30.10 in 10.0 mi Calm Calm - N/A   Mostly Cloudy
3:15 PM 46.4 °F - 33.8 °F 62% 30.10 in 10.0 mi Calm Calm - N/A   Mostly Cloudy
3:16 PM 46.4 °F 43.5 °F 33.8 °F 62% 30.10 in 10.0 mi NW 5.8 mph - N/A   Scattered Clouds
3:35 PM 46.4 °F 42.9 °F 35.6 °F 66% 30.09 in 10.0 mi NW 6.9 mph - N/A   Clear
3:55 PM 46.4 °F 45.2 °F 33.8 °F 62% 30.09 in 10.0 mi West 3.5 mph - N/A   Clear
4:15 PM 46.4 °F - 33.8 °F 62% 30.08 in 10.0 mi Calm Calm - N/A   Clear
4:16 PM 46.4 °F - 33.8 °F 62% 30.08 in 10.0 mi Calm Calm - N/A   Clear
4:35 PM 46.4 °F - 33.8 °F 62% 30.08 in 10.0 mi Calm Calm - N/A   Clear
4:55 PM 46.4 °F - 33.8 °F 62% 30.07 in 10.0 mi Calm Calm - N/A   Clear
4:56 PM 46.4 °F - 33.8 °F 62% 30.07 in 10.0 mi Calm Calm - N/A   Clear
5:15 PM 46.4 °F - 33.8 °F 62% 30.07 in 10.0 mi Calm Calm - N/A   Scattered Clouds
5:16 PM 46.4 °F - 33.8 °F 62% 30.07 in 10.0 mi Calm Calm - N/A   Mostly Cloudy
5:35 PM 46.4 °F - 33.8 °F 62% 30.06 in 10.0 mi Calm Calm - N/A   Mostly Cloudy
5:55 PM 46.4 °F - 33.8 °F 62% 30.06 in 10.0 mi Calm Calm - N/A   Scattered Clouds
5:56 PM 46.4 °F - 33.8 °F 62% 30.06 in 10.0 mi Calm Calm - N/A   Scattered Clouds
6:15 PM 46.4 °F - 33.8 °F 62% 30.06 in 10.0 mi Calm Calm - N/A   Scattered Clouds
6:16 PM 46.4 °F - 33.8 °F 62% 30.06 in 10.0 mi Calm Calm - N/A   Scattered Clouds
6:35 PM 44.6 °F - 33.8 °F 66% 30.06 in 10.0 mi Calm Calm - N/A   Scattered Clouds
6:36 PM 44.6 °F - 33.8 °F 66% 30.06 in 10.0 mi Calm Calm - N/A   Scattered Clouds
6:55 PM 44.6 °F - 35.6 °F 71% 30.05 in 10.0 mi Calm Calm - N/A   Scattered Clouds
7:15 PM 44.6 °F 43.1 °F 35.6 °F 71% 30.04 in 10.0 mi SE 3.5 mph - N/A   Scattered Clouds
7:35 PM 44.6 °F - 35.6 °F 71% 30.05 in 10.0 mi Calm Calm - N/A   Scattered Clouds
7:55 PM 42.8 °F - 35.6 °F 76% 30.06 in 10.0 mi Calm Calm - N/A   Scattered Clouds
8:15 PM 42.8 °F - 35.6 °F 76% 30.06 in 10.0 mi Calm Calm - N/A   Scattered Clouds
8:16 PM 42.8 °F - 35.6 °F 76% 30.05 in 10.0 mi Calm Calm - N/A   Scattered Clouds
8:55 PM 42.8 °F 41.1 °F 35.6 °F 76% 30.05 in 10.0 mi East 3.5 mph - N/A   Scattered Clouds
8:56 PM 42.8 °F 41.1 °F 35.6 °F 76% 30.05 in 10.0 mi East 3.5 mph - N/A   Scattered Clouds
9:15 PM 42.8 °F 41.1 °F 35.6 °F 76% 30.05 in 10.0 mi East 3.5 mph - N/A   Scattered Clouds
9:35 PM 42.8 °F 40.1 °F 35.6 °F 76% 30.05 in 10.0 mi ESE 4.6 mph - N/A   Clear
9:55 PM 42.8 °F 41.1 °F 35.6 °F 76% 30.05 in 10.0 mi East 3.5 mph - N/A   Clear
10:15 PM 42.8 °F - 35.6 °F 76% 30.06 in 10.0 mi Calm Calm - N/A   Clear
10:35 PM 42.8 °F - 35.6 °F 76% 30.06 in 10.0 mi Calm Calm - N/A   Clear
10:55 PM 41.0 °F - 35.6 °F 81% 30.06 in 10.0 mi Calm Calm - N/A   Clear
10:56 PM 41.0 °F - 35.6 °F 81% 30.06 in 10.0 mi Calm Calm - N/A   Clear
11:15 PM 39.2 °F - 35.6 °F 87% 30.06 in 10.0 mi Calm Calm - N/A   Clear
11:16 PM 39.2 °F - 35.6 °F 87% 30.06 in 10.0 mi Calm Calm - N/A   Clear
11:35 PM 39.2 °F - 35.6 °F 87% 30.05 in 10.0 mi Calm Calm - N/A   Clear
11:55 PM 37.4 °F 34.9 °F 33.8 °F 87% 30.04 in 10.0 mi SE 3.5 mph - N/A   Clear